Location: Barcelona
(41.3830°N, 2.1830°E)
Time: 00:11:12
(UTC+02:00)

ISS - Pass Details

Date: 05 August 2020
Orbit: 418 x 420 km, 51.6° (Epoch: 08 August)

Event Time Altitude Azimuth Distance (km) Brightness Sun altitude
Rises 22:00:57 0° 291° (WNW) 2,366 1.9 -10.4°
Reaches altitude 10° 22:03:36 10° 269° (W) 1,498 -0.1 -10.8°
Maximum altitude 22:05:45 16° 229° (SW) 1,178 -1.3 -11.1°
Drops below altitude 10° 22:07:55 10° 189° (S) 1,492 -1.2 -11.4°
Enters shadow 22:08:49 - 178° (S) 1,756 -1.0 -11.6°
